Theta_e
299 299 300 300 300 300 300 301 302 302 301 301 301 301 300 303 302 299 300 300 299 298 299 300 300 300 301 301 301 302 299 297 299 300 300 300 299 302 302 302 302 303 305 303 302
299 299 300 300 300 300 300 301 302 301 301 301 301 300 301 302 303 300 300 298 298 299 299 300 301 300 301 302 302 300 297 298 299 300 299 300 300 300 300 300 301 302 303 303 302
299 300 300 300 300 300 300 301 302 301 301 301 300 300 302 304 303 300 299 298 299 299 298 300 300 300 301 302 302 300 299 300 301 301 301 300 300 301 299 299 300 300 301 302 302
300 300 300 300 300 300 300 302 301 301 301 301 301 300 302 303 301 300 299 299 299 300 299 299 299 300 300 300 301 299 300 300 300 301 301 300 301 300 300 300 301 301 301 301 301
300 300 300 300 300 300 300 302 301 301 301 301 300 300 303 302 299 299 299 299 299 300 299 299 299 300 300 299 300 299 299 301 301 301 301 301 300 300 300 302 302 302 302 302 302
300 300 300 300 300 300 301 301 300 301 301 301 300 301 304 300 299 299 299 300 299 299 298 298 298 299 299 300 300 300 300 300 301 300 300 300 300 300 301 302 301 300 300 300 300
300 300 300 300 300 300 301 301 301 301 300 300 301 301 300 299 299 299 300 299 300 299 299 299 299 299 300 299 300 300 300 300 300 300 300 299 300 300 301 302 295 295 298 298 299
300 300 300 300 300 300 301 300 301 301 300 301 300 303 301 299 299 300 300 300 300 300 300 300 301 300 300 301 300 300 300 301 300 299 300 299 299 298 297 298 293 292 294 296 297
300 300 300 300 300 301 302 300 301 300 300 301 301 304 299 299 299 300 300 300 301 300 301 300 301 301 301 299 296 299 300 299 300 299 299 298 299 299 295 292 290 290 290 291 295
301 300 300 300 300 301 302 300 301 300 300 302 300 300 300 299 299 300 300 300 300 300 300 301 301 298 296 296 296 299 299 299 298 297 297 299 297 297 292 291 290 289 288 289 291
301 300 300 300 300 301 302 300 302 304 299 299 299 299 300 299 300 300 300 300 300 299 297 299 297 298 297 298 298 297 298 297 296 297 296 297 297 294 292 289 288 288 288 288 289
302 301 300 300 300 301 300 299 299 300 298 299 299 299 299 299 299 300 300 299 298 298 297 297 298 298 298 298 298 297 296 296 296 296 296 296 294 293 292 290 288 287 287 287 287
306 301 301 300 300 301 300 297 300 301 301 300 299 299 299 299 299 299 300 299 298 298 297 298 299 299 298 298 297 296 296 295 294 296 297 296 294 292 291 290 287 287 286 286 286
305 303 301 300 301 300 299 297 300 302 298 300 299 299 300 299 299 300 300 299 298 298 298 298 299 298 298 298 296 288 295 294 294 292 295 295 293 293 290 290 287 285 285 285 285
308 302 300 300 300 301 298 298 300 304 296 299 299 299 299 299 299 300 299 298 297 297 295 298 298 298 293 298 295 292 293 293 295 292 291 298 293 293 289 288 285 285 284 284 284
308 303 301 301 300 300 297 299 300 301 299 300 298 298 299 298 299 300 299 298 297 297 297 297 298 297 297 296 295 293 291 296 298 291 286 294 292 291 287 286 284 283 282 283 283
309 303 301 301 300 299 297 302 302 301 298 296 297 297 298 298 298 298 297 296 296 293 294 295 297 297 296 293 294 292 290 290 292 289 290 295 293 287 286 284 282 282 280 281 282
312 305 301 301 300 298 298 301 298 295 293 297 298 299 299 297 298 297 297 296 295 294 290 289 295 295 294 289 288 292 290 291 293 292 292 296 292 289 285 284 281 279 281 281 281
311 306 301 301 300 297 303 300 302 297 298 297 299 297 295 298 297 297 297 296 296 293 291 291 292 295 293 292 290 293 293 292 290 290 290 293 293 288 288 283 279 278 280 280 281
310 306 300 300 299 297 302 303 296 296 295 297 298 294 293 292 296 296 297 297 297 296 293 291 294 296 294 292 292 292 291 294 292 293 294 294 291 285 282 280 279 278 279 279 280
307 302 301 299 296 303 303 298 295 296 296 297 294 296 295 294 296 294 298 296 296 296 295 292 290 295 293 286 287 291 291 291 291 293 295 295 295 279 279 278 278 278 279 279 280
302 301 299 296 300 298 297 293 295 294 296 296 297 296 293 291 292 298 299 298 296 296 296 294 289 293 290 285 289 291 288 289 290 293 294 293 293 284 280 279 279 278 278 279 280
302 300 298 295 301 299 294 295 296 295 295 296 297 295 289 290 292 292 296 296 296 295 292 291 294 290 293 292 293 289 291 289 290 290 288 291 289 284 281 279 278 278 278 278 279
303 301 300 295 301 298 296 296 294 295 296 296 296 295 289 288 290 289 296 296 296 296 296 295 291 288 293 291 283 289 289 289 289 283 284 287 285 284 281 278 277 277 278 278 278
303 300 297 298 299 298 297 296 295 294 295 296 296 293 291 290 286 288 292 295 296 297 295 292 290 284 287 280 285 286 286 285 283 282 287 287 285 281 280 278 277 277 277 277 278
302 299 295 296 298 299 299 297 296 295 295 295 292 292 290 290 293 292 293 295 297 294 295 291 291 291 290 282 284 288 289 284 284 279 279 279 283 279 279 277 277 277 277 277 277
301 300 301 298 298 299 299 299 297 295 295 295 294 293 291 293 294 295 295 294 294 289 292 289 288 285 288 288 291 291 286 281 279 275 281 284 285 278 277 276 277 277 277 278 278
Wind_Speed
11 12 13 15 17 18 18 19 19 20 18 14 11 8 4 5 6 6 17 21 21 18 15 12 9 11 3 2 5 3 1 3 4 4 3 7 6 10 16 7 14 5 1 3 9
11 12 14 16 17 19 19 19 19 20 15 13 9 5 4 5 6 13 22 21 18 15 14 17 18 18 6 3 2 3 3 6 5 2 4 4 4 11 7 17 8 14 16 14 14
13 13 14 16 18 19 20 19 20 16 13 9 6 4 5 3 2 12 23 20 16 14 12 10 10 11 5 6 3 4 4 4 10 14 11 7 8 11 4 4 4 19 27 27 27
12 14 15 16 18 20 21 19 19 14 10 8 4 4 4 2 1 15 22 18 23 18 12 10 10 6 3 4 5 6 8 8 8 12 15 8 12 8 12 14 25 31 30 28 27
13 14 15 17 18 20 21 19 17 12 7 7 2 4 2 4 6 19 16 22 26 17 12 10 10 5 4 6 10 4 4 13 21 23 24 24 12 15 18 19 22 27 26 25 25
13 14 16 17 18 20 19 19 14 8 5 6 4 4 3 4 13 18 19 30 19 12 11 7 3 7 7 5 2 8 16 20 22 21 20 10 14 8 19 23 19 15 17 15 15
14 15 16 17 18 20 17 18 11 6 2 6 4 4 5 6 16 16 27 20 11 5 8 8 5 2 5 6 6 15 9 8 6 4 6 19 7 8 25 29 19 20 17 14 14
15 15 16 17 18 20 16 16 8 4 2 6 3 2 1 9 15 19 28 10 8 6 6 7 9 3 2 8 6 5 2 4 4 12 3 11 7 9 26 14 19 21 22 20 17
15 15 17 17 18 19 15 14 5 1 3 5 6 1 2 8 13 25 24 11 5 6 5 4 4 2 4 5 4 2 7 15 10 12 8 5 11 7 19 18 19 25 26 25 23
14 16 18 18 19 17 15 10 2 3 2 0 6 2 6 14 9 26 25 5 4 7 1 1 2 3 4 4 7 16 13 9 16 10 11 8 9 12 18 17 17 20 24 27 28
14 16 17 19 19 15 13 5 1 1 7 6 4 2 10 15 5 24 30 1 1 5 3 2 5 2 5 3 6 10 13 14 14 7 15 4 6 9 12 20 22 24 27 29 32
14 15 17 19 19 12 13 6 4 2 1 4 2 5 7 12 5 21 27 8 6 4 7 5 0 2 4 5 9 12 13 7 10 12 7 8 10 9 10 16 18 21 24 26 31
14 15 16 17 17 14 12 14 3 7 1 2 3 4 6 8 4 14 19 6 4 5 2 3 2 6 6 11 16 14 4 10 11 7 3 8 2 5 10 11 21 21 21 25 28
15 14 15 16 9 16 9 13 1 3 4 4 3 3 6 3 2 15 13 4 4 3 4 3 4 5 8 7 9 4 3 17 15 2 4 2 3 5 12 9 16 25 28 30 34
14 14 14 15 14 10 12 9 4 1 3 1 3 4 8 4 7 12 12 4 1 4 4 2 5 6 3 11 5 8 19 12 5 3 2 4 3 2 9 12 20 23 30 32 32
12 13 13 13 14 10 11 3 4 5 4 1 3 6 4 5 4 9 8 10 2 3 2 3 8 2 2 13 1 12 5 2 2 2 4 7 2 3 5 9 15 22 29 32 35
12 11 12 13 11 10 7 3 4 4 3 4 2 4 1 5 5 5 4 7 4 6 7 7 3 2 3 6 1 9 6 4 5 5 4 4 4 4 4 7 8 17 27 30 33
15 10 11 12 10 6 3 4 3 2 5 0 2 2 2 5 2 6 3 5 4 3 2 3 7 3 5 4 4 5 3 3 3 3 5 5 4 4 4 9 17 21 22 27 30
14 11 10 9 8 5 1 3 6 5 3 4 2 4 4 3 1 5 3 0 0 1 4 4 6 2 4 1 2 5 2 1 2 3 2 2 1 3 12 18 21 23 25 27 30
11 9 8 7 4 2 3 5 3 1 4 3 4 3 2 4 4 3 1 1 1 1 6 2 6 3 3 1 5 4 3 1 1 4 3 3 4 4 13 18 16 18 24 29 29
7 2 3 4 3 2 3 5 3 2 2 3 5 3 4 3 2 2 2 1 1 1 5 4 2 3 3 2 4 3 3 3 3 2 2 4 4 4 5 8 12 16 22 25 27
7 1 4 5 2 1 2 4 4 4 2 1 3 3 5 3 1 2 3 2 3 2 4 4 3 6 4 5 5 4 2 1 1 4 2 1 4 1 2 6 12 17 20 20 19
7 4 6 8 2 2 1 2 3 4 4 4 3 2 2 5 1 2 2 3 4 1 4 3 1 5 3 3 2 4 1 2 3 1 3 2 4 4 9 12 13 14 19 18 17
9 1 5 7 3 5 3 4 3 4 3 4 3 4 3 1 1 3 2 1 4 2 5 6 2 5 5 5 3 5 3 4 2 1 2 4 7 6 15 10 16 17 14 13 15
8 4 5 3 4 4 4 4 4 4 3 7 1 5 6 3 2 4 4 1 2 2 2 3 2 1 7 6 1 3 5 4 4 4 2 5 3 4 6 10 12 12 9 11 14
13 6 6 2 6 6 6 6 9 4 7 4 4 5 6 5 6 6 4 3 2 2 1 2 2 1 5 7 5 4 6 2 2 4 4 4 6 3 4 5 8 9 9 11 14
12 11 3 2 3 4 5 6 7 9 7 3 7 5 3 8 8 2 4 3 4 5 1 3 2 2 5 7 7 6 6 2 3 3 5 2 4 1 3 4 5 8 12 16 18
Wind_Direction
6 5 359 356 357 356 354 352 352 347 347 349 351 359 66 106 94 63 12 358 347 347 357 359 5 4 37 194 203 193 47 246 254 211 279 356 16 322 323 318 327 348 161 333 342
358 359 359 353 354 353 352 350 349 346 352 351 356 23 114 123 104 24 8 352 347 356 4 8 5 359 1 339 264 155 151 236 223 359 298 305 330 311 326 318 305 304 280 290 308
348 357 353 353 352 351 350 348 348 349 352 358 16 46 119 140 72 5 355 351 352 345 350 357 350 348 328 326 329 324 226 247 298 317 338 317 306 318 293 296 298 316 311 303 299
350 347 349 354 350 349 348 348 348 350 1 6 17 101 96 106 52 353 345 342 345 336 340 338 330 348 326 333 337 332 282 303 295 319 321 306 297 286 260 274 297 293 293 293 291
348 339 349 352 349 348 348 346 346 351 8 9 10 128 95 58 16 350 337 340 339 340 342 322 333 8 0 306 317 245 287 316 309 312 307 304 289 277 293 300 311 309 301 296 296
341 338 348 351 348 347 347 344 346 355 18 20 82 110 111 70 352 350 342 338 341 343 343 355 6 318 293 282 309 304 306 302 300 300 303 290 292 321 287 305 330 7 5 343 335
332 339 346 349 347 345 346 344 344 351 49 42 90 101 105 32 360 354 340 356 2 7 38 39 21 27 307 314 301 287 294 298 294 352 297 15 333 311 339 333 26 15 16 12 11
332 339 343 348 347 345 345 343 339 338 160 43 40 60 93 349 -0 357 359 50 42 63 43 43 38 55 302 287 289 302 291 309 343 316 328 359 285 12 9 28 16 5 357 346 343
331 339 342 347 346 347 344 340 337 355 138 55 36 56 26 338 345 6 6 7 12 14 16 35 45 50 328 336 335 275 305 299 309 334 316 304 295 8 13 23 16 5 358 350 337
333 340 343 342 345 348 346 337 296 4 225 11 17 95 353 334 347 6 6 10 334 346 84 68 85 61 1 21 337 309 313 298 308 316 15 313 350 56 28 16 19 7 357 355 351
340 340 341 338 345 345 352 344 336 336 63 82 82 28 330 352 9 10 10 45 6 51 8 324 57 327 311 299 285 297 301 301 301 345 329 284 56 49 25 20 13 4 357 353 351
331 338 341 336 340 348 351 18 334 192 87 75 55 352 347 353 343 13 6 22 18 44 348 9 245 273 293 315 325 319 305 293 294 320 317 83 48 19 23 22 12 2 355 349 349
324 336 335 336 338 343 2 5 4 152 182 323 357 334 358 339 20 357 1 346 35 32 0 174 254 350 334 331 340 330 265 312 302 317 46 131 133 49 2 3 4 2 354 358 356
316 327 331 341 342 341 355 353 139 149 74 297 326 348 347 342 45 9 356 357 28 346 312 248 325 354 328 316 356 311 297 311 302 315 157 155 267 7 349 351 359 355 357 353 351
315 326 336 334 335 335 340 350 149 80 27 250 306 326 337 51 340 12 341 11 158 286 67 287 334 324 339 321 347 252 316 294 282 272 9 146 109 343 357 345 348 350 348 347 348
312 321 321 330 329 327 345 38 133 45 257 353 327 360 12 13 6 329 4 11 43 338 318 257 299 69 290 301 30 326 343 359 274 79 24 299 122 322 2 334 336 339 342 345 348
300 312 321 322 319 318 345 134 33 130 342 306 317 17 98 327 338 37 34 16 38 22 12 339 275 28 349 329 336 359 23 354 354 6 228 283 2 262 329 344 344 335 336 344 350
295 299 312 309 310 311 350 61 97 217 228 121 24 339 42 11 346 350 27 15 27 65 51 37 330 38 337 126 236 352 86 135 264 319 288 354 343 275 186 13 358 351 346 348 354
283 288 304 298 291 304 193 57 213 197 150 165 37 57 322 360 124 16 40 247 321 78 119 16 279 113 61 98 80 332 6 312 220 197 339 252 169 127 333 346 354 352 353 349 351
271 279 285 278 257 191 87 243 199 178 121 74 168 143 216 281 18 34 338 246 156 151 142 209 289 202 131 78 78 80 328 189 0 334 308 308 303 252 336 336 345 344 346 346 352
245 243 227 210 204 188 185 222 211 178 154 134 188 151 210 253 207 272 252 155 208 146 151 128 129 286 93 357 214 11 12 355 283 192 308 317 292 204 290 318 331 330 341 344 351
180 110 200 192 176 67 163 195 157 176 161 183 127 116 173 174 228 262 259 179 188 152 120 143 212 277 197 245 170 123 174 158 349 335 300 242 289 296 247 342 344 337 342 349 355
163 154 214 192 182 212 319 284 215 152 193 181 171 126 101 178 26 224 291 138 154 132 156 169 189 325 38 348 270 96 88 64 255 282 277 300 292 231 7 352 353 348 345 356 1
144 138 206 200 192 121 173 228 221 203 186 172 139 111 91 68 314 280 266 195 173 148 151 135 148 175 210 196 238 333 337 8 109 65 289 229 290 312 328 342 342 347 359 12 26
156 219 186 196 214 130 186 161 151 201 211 182 213 200 163 157 356 238 249 239 159 86 85 99 172 238 273 128 261 245 277 349 112 222 201 290 270 268 302 317 327 335 360 19 37
155 170 171 133 119 145 195 225 196 173 155 228 197 201 164 176 192 213 189 172 188 58 101 38 285 17 293 105 132 280 284 180 213 181 271 284 286 185 287 341 342 1 35 38 48
174 161 170 119 148 146 214 217 204 150 206 223 181 132 171 235 225 213 229 132 134 137 176 104 88 37 269 310 131 348 239 200 270 207 163 24 239 207 310 320 358 23 51 61 68